WGS F8 (USA 272)

Last updated on Jan. 17, 2021, 6:29 a.m. UTC

1 41879U 16075A   21016.77743273 -.00000207  00000-0  00000-0 0  9998
2 41879   0.0150  49.7504 0000171 314.5205 181.8322  1.00270536 15011
UTC
Height (km)
Latitude
Longitude
Inclination
Orbital Period
UTC large
Height (km)
Speed (km/s)
/
Latitude / Longitude
Inclination (degrees)
Orbital Period (minutes)
Azimuth
Elevation
Range (km)
Doppler Factor
iOS Compass Heading
iOS Angle

Next 30 passes for location: Hong Kong

Rise time Rise Azimuth (degrees) Set time Set Azimuth (degrees) Duration Max altitude (degrees)

No matching passes for this satellites